Location: Leiter
(44.7178°N, 106.2687°W)
Time: 02:07:07
(UTC+00:00)

X-37B - Pass Details

Date: 27 January 2022
Orbit: 329 x 342 km, 45.0° (Epoch: 18 May)

Event Time Altitude Azimuth Distance (km) Brightness Sun altitude
Rises 02:25:43 0° 238° (WSW) 2,107 5.2 -24.8°
Reaches altitude 10° 02:27:47 10° 231° (SW) 1,270 3.8 -25.2°
Enters shadow 02:28:11 13° 228° (SW) 1,114 3.5 -25.3°
